Tunica, MS

11:39 AM CDT on September 19, 2017 (GMT -0500)
Tunica

Weather History for KUTA - January, 2013

Change the Weather History Date:

Tuesday, January 15, 2013

  Actual Average (KAWM) Record (KAWM)
Temperature  
Mean Temperature 30 °F -  
Max Temperature 32 °F 46 °F 63 °F (2016)
Min Temperature 28 °F 28 °F 12 °F (1978)
Degree Days  
Heating Degree Days 35    
Moisture  
Dew Point 29 °F    
Average Humidity 91    
Maximum Humidity 100    
Minimum Humidity 86    
Precipitation  
Precipitation 0.09 in - - ()
Sea Level Pressure  
Sea Level Pressure 30.18 in    
Wind  
Wind Speed 11 mph (North)    
Max Wind Speed 16 mph    
Max Gust Speed 22 mph    
Visibility 6 miles    
Events Rain , Snow    
Averages and records for this station are not official NWS values.
T = Trace of Precipitation, MM = Missing Value Source: NWS Daily Summary

Daily Weather History Graph

Daily Weather History Graph

Search for Another Location

Airport or City:

Trip Planner

Search our weather history database for the weather conditions in past years. The results will help you decide how hot, cold, wet, or windy it might be!

Date:

Astronomy

Jan. 15, 2013 Rise Set
Actual Time 7:08 AM CST 5:14 PM CST
Civil Twilight 6:40 AM CST 5:41 PM CST
Nautical Twilight 6:09 AM CST 6:12 PM CST
Astronomical Twilight 5:39 AM CST 6:42 PM CST
Moon 9:26 AM CST (1/15) 9:49 PM CST (1/15)
Length of Visible Light 11h 00m
Length of Day
10h 06m
Waxing Crescent, 19% of the Moon is Illuminated
Jan 15
Waxing Crescent
Jan 18
First Quarter
Jan 26
Full
Feb 3
Last Quarter
Feb 10
New

Hourly Weather History & Observations

Time (CST) Temp. Windchill Dew Point Humidity Pressure Visibility Wind Dir Wind Speed Gust Speed Precip Events Conditions
12:15 AM 30.2 °F 21.3 °F 26.6 °F 86% 30.29 in 10.0 mi North 10.4 mph - N/A   Clear
12:35 AM 30.2 °F 20.8 °F 26.6 °F 86% 30.28 in 10.0 mi North 11.5 mph - N/A   Clear
12:55 AM 30.2 °F 19.8 °F 26.6 °F 86% 30.28 in 10.0 mi North 13.8 mph - N/A   Clear
1:15 AM 30.2 °F 19.3 °F 26.6 °F 86% 30.28 in 10.0 mi North 15.0 mph - N/A   Clear
1:35 AM 30.2 °F 20.8 °F 26.6 °F 86% 30.28 in 10.0 mi North 11.5 mph - N/A   Clear
1:55 AM 30.2 °F 20.8 °F 26.6 °F 86% 30.27 in 10.0 mi North 11.5 mph 17.3 mph N/A   Clear
2:15 AM 30.2 °F 19.8 °F 26.6 °F 86% 30.26 in 10.0 mi North 13.8 mph - N/A   Clear
2:35 AM 30.2 °F 20.2 °F 26.6 °F 86% 30.25 in 10.0 mi North 12.7 mph - N/A   Clear
2:55 AM 30.2 °F 20.8 °F 26.6 °F 86% 30.25 in 10.0 mi North 11.5 mph - N/A   Clear
3:15 AM 30.2 °F 20.2 °F 26.6 °F 86% 30.24 in 10.0 mi North 12.7 mph 16.1 mph N/A   Clear
3:35 AM 30.2 °F 19.8 °F 26.6 °F 86% 30.23 in 10.0 mi North 13.8 mph - N/A   Clear
3:55 AM 30.2 °F 19.8 °F 26.6 °F 86% 30.24 in 10.0 mi North 13.8 mph - N/A   Clear
4:15 AM 30.2 °F 20.8 °F 26.6 °F 86% 30.23 in 10.0 mi North 11.5 mph - N/A   Scattered Clouds
4:35 AM 30.2 °F 21.3 °F 26.6 °F 86% 30.23 in 10.0 mi North 10.4 mph - N/A   Scattered Clouds
4:55 AM 30.2 °F 21.3 °F 26.6 °F 86% 30.23 in 10.0 mi NNE 10.4 mph - N/A   Scattered Clouds
5:15 AM 28.4 °F 18.0 °F 26.6 °F 93% 30.21 in 10.0 mi North 12.7 mph - N/A   Mostly Cloudy
5:35 AM 28.4 °F 18.5 °F 26.6 °F 93% 30.21 in 10.0 mi NNE 11.5 mph - N/A   Overcast
5:55 AM 28.4 °F 16.6 °F 26.6 °F 93% 30.20 in 10.0 mi NNE 16.1 mph - N/A   Mostly Cloudy
6:15 AM 28.4 °F 16.6 °F 26.6 °F 93% 30.21 in 10.0 mi North 16.1 mph - N/A   Mostly Cloudy
6:35 AM 28.4 °F 17.5 °F 26.6 °F 93% 30.22 in 10.0 mi NNE 13.8 mph 21.9 mph N/A   Overcast
6:55 AM 28.4 °F 17.5 °F 26.6 °F 93% 30.22 in 10.0 mi NNE 13.8 mph - N/A   Overcast
7:15 AM 28.4 °F 18.0 °F 26.6 °F 93% 30.24 in 10.0 mi NNE 12.7 mph - N/A   Overcast
7:35 AM 28.4 °F 18.5 °F 26.6 °F 93% 30.24 in 10.0 mi NNE 11.5 mph - N/A   Overcast
7:55 AM 30.2 °F 20.8 °F 26.6 °F 86% 30.25 in 7.0 mi North 11.5 mph - N/A   Overcast
8:15 AM 30.2 °F 19.8 °F 26.6 °F 86% 30.24 in 7.0 mi NNE 13.8 mph - N/A   Overcast
8:35 AM 30.2 °F 19.8 °F 26.6 °F 86% 30.24 in 7.0 mi NNE 13.8 mph - N/A   Overcast
8:55 AM 30.2 °F 19.3 °F 28.4 °F 93% 30.22 in 5.0 mi NNE 15.0 mph - N/A   Overcast
9:15 AM 30.2 °F 20.2 °F 28.4 °F 93% 30.23 in 7.0 mi NNE 12.7 mph - N/A   Overcast
9:35 AM 30.2 °F 21.3 °F 28.4 °F 93% 30.24 in 7.0 mi NNE 10.4 mph - N/A   Overcast
9:55 AM 30.2 °F 20.2 °F 28.4 °F 93% 30.20 in 5.0 mi NNE 12.7 mph 19.6 mph N/A   Overcast
10:15 AM 30.2 °F 18.9 °F 28.4 °F 93% 30.16 in 7.0 mi NNE 16.1 mph - N/A   Overcast
10:35 AM 30.2 °F 20.2 °F 28.4 °F 93% 30.16 in 7.0 mi NNE 12.7 mph - N/A   Overcast
10:55 AM 30.2 °F 20.2 °F 28.4 °F 93% 30.15 in 7.0 mi North 12.7 mph - N/A   Overcast
11:15 AM 32.0 °F 22.1 °F 30.2 °F 93% 30.18 in 3.0 mi NNW 13.8 mph - 0.01 in Snow Snow
11:35 AM 32.0 °F 21.6 °F 30.2 °F 93% 30.20 in 2.0 mi NNW 15.0 mph - 0.02 in Snow Light Snow
11:55 AM 30.2 °F 18.9 °F 28.4 °F 93% 30.20 in 2.5 mi NNW 16.1 mph - 0.03 in Snow Light Snow
12:15 PM 30.2 °F 19.3 °F 28.4 °F 93% 30.19 in 4.0 mi NNW 15.0 mph - 0.01 in   Overcast
12:35 PM 30.2 °F 20.8 °F 28.4 °F 93% 30.19 in 5.0 mi NNW 11.5 mph - 0.01 in   Overcast
12:55 PM 30.2 °F 20.2 °F 28.4 °F 93% 30.16 in 4.0 mi North 12.7 mph - 0.02 in   Overcast
1:15 PM 30.2 °F 21.3 °F 28.4 °F 93% 30.14 in 2.5 mi North 10.4 mph - N/A Rain Light Freezing Rain
1:35 PM 30.2 °F 21.9 °F 28.4 °F 93% 30.13 in 3.0 mi North 9.2 mph - N/A   Light Freezing Rain
1:55 PM 30.2 °F 22.6 °F 28.4 °F 93% 30.15 in 4.0 mi North 8.1 mph - 0.01 in   Overcast
2:15 PM 30.2 °F 22.6 °F 28.4 °F 93% 30.15 in 3.0 mi North 8.1 mph - N/A   Overcast
2:35 PM 30.2 °F 22.6 °F 28.4 °F 93% 30.15 in 3.0 mi North 8.1 mph - N/A   Overcast
2:55 PM 32.0 °F 23.0 °F 30.2 °F 93% 30.10 in 2.0 mi NNE 11.5 mph - 0.02 in Snow Light Snow
3:35 PM 32.0 °F 25.6 °F 30.2 °F 93% 30.13 in 5.0 mi North 6.9 mph - 0.01 in   Overcast
3:55 PM 32.0 °F 24.8 °F 30.2 °F 93% 30.12 in 7.0 mi North 8.1 mph - 0.01 in   Overcast
4:55 PM 32.0 °F 27.5 °F 30.2 °F 93% 30.13 in 10.0 mi North 4.6 mph - N/A   Overcast
5:15 PM 32.0 °F 26.4 °F 30.2 °F 93% 30.11 in 10.0 mi NNE 5.8 mph - N/A   Overcast
5:35 PM 32.0 °F 27.5 °F 30.2 °F 93% 30.11 in 10.0 mi NNE 4.6 mph - N/A   Overcast
5:55 PM 32.0 °F 27.5 °F 30.2 °F 93% 30.11 in 7.0 mi North 4.6 mph - N/A   Overcast
6:15 PM 32.0 °F - 30.2 °F 93% 30.13 in 4.0 mi Calm Calm - N/A   Overcast
6:35 PM 32.0 °F 27.5 °F 30.2 °F 93% 30.12 in 2.0 mi North 4.6 mph - N/A   Overcast
6:55 PM 32.0 °F 27.5 °F 30.2 °F 93% 30.13 in 2.5 mi North 4.6 mph - N/A   Overcast
7:15 PM 32.0 °F 28.7 °F 30.2 °F 93% 30.12 in 2.0 mi North 3.5 mph - N/A   Overcast
7:35 PM 32.0 °F - 30.2 °F 93% 30.13 in 2.5 mi Calm Calm - N/A   Overcast
7:55 PM 32.0 °F 28.7 °F 30.2 °F 93% 30.13 in 2.5 mi North 3.5 mph - N/A   Overcast
8:15 PM 32.0 °F 28.7 °F 30.2 °F 93% 30.13 in 2.5 mi North 3.5 mph - N/A   Overcast
8:35 PM 32.0 °F 28.7 °F 30.2 °F 93% 30.15 in 2.5 mi North 3.5 mph - N/A   Overcast
8:55 PM 32.0 °F 26.4 °F 30.2 °F 93% 30.12 in 3.0 mi North 5.8 mph - N/A   Overcast
9:15 PM 32.0 °F 26.4 °F 30.2 °F 93% 30.12 in 3.0 mi North 5.8 mph - N/A   Overcast
9:35 PM 32.0 °F 28.7 °F 32.0 °F 100% 30.12 in 4.0 mi North 3.5 mph - N/A   Overcast
9:55 PM 32.0 °F 27.5 °F 32.0 °F 100% 30.12 in 5.0 mi North 4.6 mph - N/A   Overcast
10:15 PM 32.0 °F 27.5 °F 32.0 °F 100% 30.13 in 5.0 mi North 4.6 mph - N/A   Overcast
10:35 PM 32.0 °F 28.7 °F 30.2 °F 93% 30.13 in 7.0 mi North 3.5 mph - N/A   Overcast
10:55 PM 32.0 °F 27.5 °F 30.2 °F 93% 30.13 in 4.0 mi North 4.6 mph - N/A   Overcast
11:15 PM 32.0 °F 28.7 °F 30.2 °F 93% 30.14 in 3.0 mi North 3.5 mph - N/A   Overcast
11:35 PM 32.0 °F 27.5 °F 30.2 °F 93% 30.15 in 4.0 mi North 4.6 mph - N/A   Overcast
11:55 PM 32.0 °F 27.5 °F 30.2 °F 93% 30.15 in 5.0 mi North 4.6 mph - N/A   Overcast